Tracking 19795 objects as of 20-Jul-2019
HD Live streaming from Space Station
objects crossing your sky now

FENGYUN 1C DEB

Track FENGYUN 1C DEB now!
10-day predictions


NORAD ID: 32342
Int'l Code: 1999-025CYK
Perigee: 851.9 km
Apogee: 864.0 km
Inclination: 98.9 °
Period: 101.9 minutes
Semi major axis: 7228 km
RCS: 0.023 m2 (small)
Launch date: May 10, 1999
Source: People's Republic of China (PRC)
Launch site: Taiyaun Space Center, China (TSC)

Note: This is SATELLITE DEBRIS
aabbcc
Your satellite tracking list
Your tracking list is empty




NASA's NSSDC Master Catalog

Two Line Element Set (TLE):
1 32342U 99025CYK 19201.02383604 -.00000016  00000-0  15294-4 0  9991
2 32342  98.8663 230.6299 0008383 144.0975 273.2119 14.12516244609784
Source of the keplerian elements: AFSPC